THORAD AGENA D DEB, 4742

Orbit data source: Space-Track

THORAD AGENA D DEB, 4742 is space debris in SSO originally from a launch on Wed, 08 Apr 1970 UTC launched from the Air Force Western Test Range (AFWTR). Debris objects in space refer to the collection of defunct objects orbiting the Earth. Examples of debris include non-operational satellites, rocket bodies, and fragments generated from explosions, collisions, or faulty payload assembly.

Loading next visibility...
Identifier
4742, 1970-025CR
Orbit
SSO
Country
Flag of USUS
Related business
Manufacturer
Unknown
Mission
Spacecraft
Bus & Motor
Unknown
Mass
Unknown
Launch date (UTC)
1970-04-08 (56 years ago)
Launch vehicle
Unknown
Launch site
Air Force Western Test Range (AFWTR)
Object type
Payload
Rocket body
Debris
Shape & HBR
Unknown shape, 0.2 m
Radar Cross Section
Medium (>0.1 m² and <1 m²)

Expand to show TLE details & history
Last TLE update: 21 hours ago

TLE from 21 hours ago
0 THORAD AGENA D DEB
1 04742U 70025CR  26255.45000774  .00000070  00000-0  17060-3 0  9992
2 04742 100.0051 325.8061 0018546 274.7971  95.7913 13.54418069781834
Epoch: 2026-09-12T10:48Z
TLE epoch observation values (Epoch: 2026-09-12T10:48:00.668Z)
Latitude
10.58497°
Longitude
170.46494°
Altitude
1,059.497 km
Speed
7.322 km/s
True Right ascension
21h 35m 42s
True Declination
10° 31' 32"
Sunlit
Object was in full shadow at epoch
Visualization orbit readout
Latitude
Unknown
Longitude
Unknown
Altitude
Unknown
Speed
Unknown
Apparent Right ascension
Unknown
Apparent Declination
Unknown
Sunlit
N/A
Visualization observer readout
Local Sidereal Time
00:45:31
Azimuth
Unknown
Elevation
Unknown
Doppler factor
Unknown
Orbital elements
Apogee altitude
1,067.142 km
Perigee altitude
1,039.577 km
Semi-major axis
7,431.496 km
Eccentricity
0.00185
Inclination
100.0051°
RAAN
325.8061°
Arg. of periapsis
274.7971°
True anomaly
96.00269°
Mean anomaly
95.7913°
Eccentric anomaly
95.897°
Mean motion
3.38789 °/min
Orbital period
106.26 mins
BSTAR
0.0001706
Loading maneuver chart data...
Computing Atmospheric mass density...

Documentation

Showing up to 5 results
|